Location: Vigo di Fassa
(46.4167°N, 11.6667°E)
Time: 19:20:07
(UTC+00:00)

Gbstr 26 Del rocket - Pass Details

Date: 03 March 2021
Orbit: 492 x 1263 km, 51.8° (Epoch: 21 April)

Event Time Altitude Azimuth Distance (km) Brightness Sun altitude
Rises 18:07:59 0° 273° (W) 2,767 8.6 -12.1°
Reaches altitude 10° 18:10:07 10° 279° (W) 1,950 7.1 -12.5°
Maximum altitude 18:14:25 47° 354° (N) 912 4.0 -13.2°
Enters shadow 18:18:31 16° 64° (ENE) 1,964 5.1 -13.9°
